Simultaneous Nadir Overpasses (SNOs) Predictions

Prediction of SNOs between NOAA-19 and TERRA Satellite Orbit:

Table of predicted SNOs for the next 14.0 days since TLE Epoch: 8/6/2022
Index Date (NOAA-19) Time (NOAA-19) Lat,Lon (NOAA-19) SZA (NOAA-19 ) Date (TERRA) Time (TERRA) Lat,Lon (TERRA) SZA (TERRA ) Distance(km) Time Diff (sec)
1 08/07/2022 07:54:41 -80.83, -82.52 113.89 08/07/2022 07:54:30 -80.84, -82.49 113.88 1.93 11
2 08/09/2022 13:27:31 80.83, 14.05 66.74 08/09/2022 13:28:11 80.85, 14.14 66.77 2.37 40
3 08/09/2022 14:18:35 -80.83,-178.72 113.26 08/09/2022 14:17:39 -80.82,-178.60 113.28 2.62 56
4 08/11/2022 19:51:24 80.83, -81.96 67.41 08/11/2022 19:51:20 80.82, -82.03 67.38 2.12 4
5 08/14/2022 01:24:22 -80.84, 14.71 111.92 08/14/2022 01:25:01 -80.84, 14.83 111.89 2.21 39
6 08/14/2022 02:15:16 80.83,-177.63 68.13 08/14/2022 02:14:27 80.84,-177.55 68.12 1.96 49
7 08/16/2022 07:48:14 -80.83, -80.88 111.18 08/16/2022 07:48:09 -80.84, -81.04 111.19 3.05 5
8 08/18/2022 13:21:03 80.84, 15.44 69.51 08/18/2022 13:21:50 80.82, 15.36 69.51 2.43 47



Historial Predications of SNOs between NOAA-19 and TERRA
